Regional Weather Roundup
Issued by NWS

Home | Current Version | Previous Version | Text Only | Print | Product List | Glossary Off
Versions: 1 2 3 4 5 6 7 8 9 10 11 12 13 14 15 16 17 18 19 20 21 22 23 24 25 26 27 28 29 30 31 32 33 34 35 36 37 38 39 40 41 42 43 44 45 46 47 48 49 50

132
ASUS45 KCYS 230310
RWRWY

WYOMING REGIONAL WEATHER ROUNDUP
NATIONAL WEATHER SERVICE CHEYENNE WY
800 PM MST MON JAN 22 2018

NOTE:  "FAIR" INDICATES FEW OR NO CLOUDS BELOW 12,000 FEET
WITH NO SIGNIFICANT WEATHER AND/OR OBSTRUCTIONS TO VISIBILITY.

WYZ001-230400-
YELLOWSTONE NATIONAL PARK

CITY           SKY/WX    TMP DP  RH WIND       PRES   REMARKS
LK YELLOWSTONE   N/A     13  10  88 CALM      30.13R
W YELLOWSTONE  NOT AVBL

$$
WYZ002>013-054>058-071-098>099-230400-
NORTHERN WYOMING

CITY           SKY/WX    TMP DP  RH WIND       PRES   REMARKS
JACKSON        LGT SNOW  15  13  91 N3        30.18S FOG
CODY           FAIR      31  13  47 VRB6      30.10R WCI  25
GREYBULL       CLOUDY    20  15  81 CALM      30.13R
WORLAND        FAIR      18  13  80 VRB3      30.12R
SHERIDAN       CLOUDY    27  20  75 CALM      30.07R
BUFFALO        CLOUDY    30  18  60 S7        30.06R WCI  23
GILLETTE       CLOUDY    28  22  78 W8        30.05S WCI  20
HULETT         CLOUDY    28  19  69 MISG      30.05S
NEWCASTLE      FAIR      21  14  73 N5        30.07R WCI  15

$$
WYZ014>020-022>026-101>103-230400-
CENTRAL WYOMING

CITY           SKY/WX    TMP DP  RH WIND       PRES   REMARKS
BIG PINEY      CLOUDY    18  11  74 CALM      30.16S
PINEDALE       CLOUDY    18  12  79 CALM      30.16S
DUBOIS         FAIR      19  12  73 N15G21    30.07S WCI   5
LANDER         FAIR      11   6  81 CALM      30.09R
RIVERTON       FAIR      11   3  70 CALM      30.10R
CASPER         CLOUDY    24  17  74 SW17      30.08F WCI  11
DOUGLAS        FAIR      14   9  80 NW3       30.09F

$$
WYZ021-027>030-104>119-230400-
SOUTHERN WYOMING

CITY           SKY/WX    TMP DP  RH WIND       PRES   REMARKS
EVANSTON       FLURRIES  21  18  88 W13       30.21R WCI   9
ROCK SPRINGS   CLOUDY    20  14  77 W28       30.16R WCI   2
DIXON          LGT SNOW  21  17  87 SW3       30.24S
RAWLINS        CLOUDY    20  14  77 W18G29    30.11F WCI   5
SARATOGA       CLOUDY    21  12  68 SE5       30.14S WCI  15
LARAMIE        FAIR      18  10  71 W9        30.04F WCI   7
CHEYENNE       FAIR      25  12  58 NE13G20   30.03S WCI  14
TORRINGTON     FAIR      24  14  65 NW13      30.08R WCI  12

$$




USA.gov is the U.S. government's official web portal to all federal, state and local government web resources and services.